Waarnemingen

Advertentie
Mijn weer
Cozzo Spadaro, Italië (16480): temperatuur & dauwpunt: 14.10.2018 21:00:00 - 20.10.2018 21:00:00 (CEST)Cozzo Spadaro, Italië (16480): windsnelheid: 14.10.2018 21:00:00 - 20.10.2018 21:00:00 (CEST)Cozzo Spadaro, Italië (16480): windrichting: 14.10.2018 21:00:00 - 20.10.2018 21:00:00 (CEST)Cozzo Spadaro, Italië (16480): luchtdruk: 14.10.2018 21:00:00 - 20.10.2018 21:00:00 (CEST)Cozzo Spadaro, Italië (16480): zicht: 14.10.2018 21:00:00 - 20.10.2018 21:00:00 (CEST)Cozzo Spadaro, Italië (16480): Zonneschijnduur: 14.10.2018 21:00:00 - 20.10.2018 21:00:00 (CEST)
Datum & Tijd tt [°C] td [°C] ff [km/u] ff [kn] dd ppp [hPa] vv [km] sd [min]
20.10.2018 21:00:00 - - - - - - - -
20.10.2018 20:00:00 22,8 20,9 11 6 NO 1017,7 10 0
20.10.2018 19:00:00 22,0 20,1 11 6 ONO 1017,0 10 0
20.10.2018 18:00:00 22,2 19,7 15 8 ONO 1017,0 10 30
20.10.2018 17:00:00 23,2 20,3 15 8 ONO 1017,0 14 60
20.10.2018 16:00:00 23,8 20,7 15 8 ONO 1017,3 14 60
20.10.2018 15:00:00 24,0 20,9 15 8 ONO 1017,6 14 60
20.10.2018 14:00:00 24,0 21,1 15 8 ONO 1017,5 12 60
20.10.2018 13:00:00 23,4 20,7 18 10 ONO 1017,4 12 48
20.10.2018 12:00:00 23,2 20,5 21 11 ONO 1017,3 12 48
20.10.2018 11:00:00 23,2 20,5 18 10 ONO 1017,0 12 60
20.10.2018 10:00:00 22,8 20,2 22 12 ONO 1016,6 12 60
20.10.2018 09:00:00 22,4 20,0 24 13 ONO 1016,0 12 18
20.10.2018 08:00:00 22,0 20,1 22 12 ONO 1015,5 12 0
20.10.2018 07:00:00 - - - - - - - -
20.10.2018 06:00:00 - - - - - - - -
20.10.2018 05:00:00 - - - - - - - -
20.10.2018 04:00:00 - - - - - - - -
20.10.2018 03:00:00 - - - - - - - -
20.10.2018 02:00:00 - - - - - - - -
20.10.2018 01:00:00 - - - - - - - -
20.10.2018 00:00:00 - - - - - - - -
19.10.2018 23:00:00 - - - - - - - -
19.10.2018 22:00:00 - - - - - - - -
19.10.2018 21:00:00 - - - - - - - -
19.10.2018 20:00:00 21,4 19,2 15 8 O 1013,3 20 -
19.10.2018 19:00:00 21,4 19,1 16 9 O 1012,9 20 0
19.10.2018 18:00:00 21,8 19,2 16 9 ONO 1012,0 20 60
19.10.2018 17:00:00 22,4 19,6 15 8 ONO 1011,8 20 60
19.10.2018 16:00:00 22,4 19,4 18 10 ONO 1011,7 20 60
19.10.2018 15:00:00 22,4 19,4 16 9 ONO 1011,3 20 60
19.10.2018 14:00:00 22,4 19,4 15 8 NO 1011,7 20 60
19.10.2018 13:00:00 22,0 19,0 18 10 ONO 1011,6 20 60
19.10.2018 12:00:00 24,4 22,1 21 11 NO 1011,4 20 60
19.10.2018 11:00:00 20,6 18,5 21 11 NO 1011,1 20 18
19.10.2018 10:00:00 20,0 18,0 21 11 NO 1010,5 20 6
19.10.2018 09:00:00 19,6 17,9 16 9 O 1009,7 15 0
19.10.2018 08:00:00 19,6 17,9 16 9 ONO 1009,0 12 0
19.10.2018 07:00:00 - - - - - - - -
19.10.2018 06:00:00 - - - - - - - -
19.10.2018 05:00:00 - - - - - - - -
19.10.2018 04:00:00 - - - - - - - -
19.10.2018 03:00:00 - - - - - - - -
19.10.2018 02:00:00 - - - - - - - -
19.10.2018 01:00:00 - - - - - - - -
19.10.2018 00:00:00 - - - - - - - -
18.10.2018 23:00:00 - - - - - - - -
18.10.2018 22:00:00 - - - - - - - -
18.10.2018 21:00:00 - - - - - - - -
18.10.2018 20:00:00 - - - - - - - -
18.10.2018 19:00:00 23,0 21,3 18 10 OZO 1008,2 4,0 -
18.10.2018 18:00:00 23,0 21,3 16 9 OZO 1007,9 4,0 0
18.10.2018 17:00:00 23,0 21,3 26 14 OZO 1007,0 4,0 0
18.10.2018 16:00:00 - - - - - - - -
18.10.2018 15:00:00 23,0 21,3 21 11 ONO 1006,1 10 0
18.10.2018 14:00:00 23,2 21,1 28 15 O 1008,5 10 0
18.10.2018 13:00:00 23,4 21,1 28 15 O 1008,8 10 0
18.10.2018 12:00:00 23,0 20,5 31 17 O 1008,9 10 0
18.10.2018 11:00:00 23,0 20,5 28 15 O 1009,1 10 0
18.10.2018 10:00:00 23,0 20,7 28 15 O 1009,1 10 0
18.10.2018 09:00:00 22,4 20,1 28 15 O 1008,9 10 0
18.10.2018 08:00:00 22,4 20,3 28 15 O 1009,1 10 0
18.10.2018 07:00:00 - - - - - - - -
18.10.2018 06:00:00 - - - - - - - -
18.10.2018 05:00:00 - - - - - - - -
18.10.2018 04:00:00 - - - - - - - -
18.10.2018 03:00:00 - - - - - - - -
18.10.2018 02:00:00 - - - - - - - -
18.10.2018 01:00:00 - - - - - - - -
18.10.2018 00:00:00 - - - - - - - -
17.10.2018 23:00:00 - - - - - - - -
17.10.2018 22:00:00 - - - - - - - -
17.10.2018 21:00:00 - - - - - - - -
17.10.2018 20:00:00 22,6 20,1 24 13 OZO 1011,9 10 -
17.10.2018 19:00:00 22,4 20,0 24 13 O 1011,6 10 0
17.10.2018 18:00:00 22,8 20,3 21 11 O 1011,6 10 0
17.10.2018 17:00:00 23,4 20,7 21 11 OZO 1012,0 10 54
17.10.2018 16:00:00 23,6 20,7 22 12 O 1012,4 12 48
17.10.2018 15:00:00 23,8 20,9 18 10 OZO 1012,7 12 54
17.10.2018 14:00:00 24,0 20,9 18 10 O 1013,2 12 60
17.10.2018 13:00:00 24,0 20,9 21 11 O 1013,9 12 60
17.10.2018 12:00:00 24,0 20,9 18 10 OZO 1013,9 12 60
17.10.2018 11:00:00 23,8 20,9 18 10 O 1014,0 12 48
17.10.2018 10:00:00 23,6 21,1 15 8 OZO 1013,9 10 6
17.10.2018 09:00:00 22,8 20,5 13 7 OZO 1013,8 10 12
17.10.2018 08:00:00 22,0 20,3 11 6 OZO 1013,8 10 0
17.10.2018 07:00:00 - - - - - - - -
17.10.2018 06:00:00 - - - - - - - -
17.10.2018 05:00:00 - - - - - - - -
17.10.2018 04:00:00 - - - - - - - -
17.10.2018 03:00:00 - - - - - - - -
17.10.2018 02:00:00 - - - - - - - -
17.10.2018 01:00:00 - - - - - - - -
17.10.2018 00:00:00 - - - - - - - -
16.10.2018 23:00:00 - - - - - - - -
16.10.2018 22:00:00 - - - - - - - -
16.10.2018 21:00:00 - - - - - - - -
16.10.2018 20:00:00 22,0 19,9 9 5 O 1015,6 15 -
16.10.2018 19:00:00 22,0 19,7 8 4 O 1015,4 20 0
16.10.2018 18:00:00 22,8 20,3 8 4 O 1015,0 25 54
16.10.2018 17:00:00 23,8 19,9 5 3 OZO 1015,0 20 60
16.10.2018 16:00:00 24,0 20,3 4 2 OZO 1015,3 25 60
16.10.2018 15:00:00 24,2 20,7 4 2 ZO 1015,4 25 54
16.10.2018 14:00:00 24,0 20,9 5 3 OZO 1015,9 20 60
16.10.2018 13:00:00 23,8 21,1 9 5 O 1015,9 20 60
16.10.2018 12:00:00 23,6 20,9 9 5 O 1015,9 20 60
16.10.2018 11:00:00 23,0 20,5 8 4 O 1015,9 20 60
16.10.2018 10:00:00 22,2 19,7 4 2 NO 1015,6 20 60
16.10.2018 09:00:00 21,0 19,1 4 2 NNO 1015,0 18 36
16.10.2018 08:00:00 18,8 17,1 4 2 NNO 1014,5 18 0
16.10.2018 07:00:00 - - - - - - - -
16.10.2018 06:00:00 - - - - - - - -
16.10.2018 05:00:00 - - - - - - - -
16.10.2018 04:00:00 - - - - - - - -
16.10.2018 03:00:00 - - - - - - - -
16.10.2018 02:00:00 - - - - - - - -
16.10.2018 01:00:00 - - - - - - - -
16.10.2018 00:00:00 - - - - - - - -
15.10.2018 23:00:00 - - - - - - - -
15.10.2018 22:00:00 - - - - - - - -
15.10.2018 21:00:00 - - - - - - - -
15.10.2018 20:00:00 21,6 19,2 2 1 W 1013,0 18 0
15.10.2018 19:00:00 22,4 19,8 2 1 W 1012,9 18 0
15.10.2018 18:00:00 23,0 19,4 8 4 WZW 1012,3 20 18
15.10.2018 17:00:00 23,8 19,3 8 4 WZW 1012,3 20 60
15.10.2018 16:00:00 23,6 19,5 9 5 WZW 1012,1 20 30
15.10.2018 15:00:00 24,0 19,5 11 6 W 1012,0 20 48
15.10.2018 14:00:00 23,6 19,7 11 6 WZW 1012,0 20 30
15.10.2018 13:00:00 23,6 19,1 11 6 W 1012,1 20 60
15.10.2018 12:00:00 23,4 19,4 13 7 W 1012,1 20 60
15.10.2018 11:00:00 22,2 19,4 8 4 ZW 1011,9 20 60
15.10.2018 10:00:00 21,4 18,8 5 3 WZW 1011,2 20 24
15.10.2018 09:00:00 20,2 18,2 5 3 NW 1010,9 20 0
15.10.2018 08:00:00 20,4 18,4 8 4 W 1010,0 20 0
15.10.2018 07:00:00 - - - - - - - -
15.10.2018 06:00:00 - - - - - - - -
15.10.2018 05:00:00 - - - - - - - -
15.10.2018 04:00:00 - - - - - - - -
15.10.2018 03:00:00 - - - - - - - -
15.10.2018 02:00:00 - - - - - - - -
15.10.2018 01:00:00 - - - - - - - -
15.10.2018 00:00:00 - - - - - - - -
14.10.2018 23:00:00 - - - - - - - -
14.10.2018 22:00:00 - - - - - - - -
14.10.2018 21:00:00 - - - - - - - -

tt = temperatuur
td = dauwpunt
ff = windsnelheid
dd = windrichting
ppp = luchtdruk
vv = zicht
sd = Zonneschijnduur

Weerstations in de omgeving